contact:dominique.lefevre@mio.osupytheas.fr, maurice.libes@osupytheas.fr, didier.mallarino@osupytheas.fr
Project:EMSO http://www.emso-fr.org/EMSO-France
Depth: 2436.0 m
Title:EMSO Ligure Ouest : Data MII capteur AQUADOPP
Date,Latitude,Longitude,X_East,Y_North,Z_Up,Amplitude_X,Amplitude_Y,Amplitude_Z,Batterie,SoundSpeed,Heading,Pitch,Roll,Pressure,TIS,Speed,Direction
, degrees North, degrees East, m.s-1, m.s-1,m.s-1, 1, 1, 1, Volt, m.s-1, degree, degree, degree, dbar, degree_C, m.s-1, degree
2022-01-07T00:04:03,42.805,6.029,-0.016,-0.022,-0.036,105.0,103.0,102.0,13.4,1505.2,329.2,-0.8,1.8,2470.713,13.28,0.027,216.0
2022-01-07T00:07:03,42.805,6.029,-0.019,-0.01,-0.039,105.0,104.0,102.0,13.4,1505.2,326.9,-0.8,1.8,2470.692,13.28,0.021,242.2
2022-01-07T00:10:03,42.805,6.029,-0.014,-0.008,-0.021,105.0,104.0,102.0,13.4,1505.2,325.5,-0.7,1.8,2470.652,13.28,0.016,240.3
2022-01-07T00:13:03,42.805,6.029,-0.013,-0.024,0.004,104.0,105.0,103.0,13.4,1505.2,325.5,-0.8,1.8,2470.676,13.28,0.027,208.4
2022-01-07T00:16:03,42.805,6.029,-0.017,-0.008,-0.034,104.0,106.0,102.0,13.4,1505.2,331.5,-0.8,1.8,2470.677,13.28,0.018,244.8
2022-01-07T00:19:03,42.805,6.029,-0.031,-0.018,-0.016,104.0,105.0,102.0,13.4,1505.2,329.6,-0.7,1.8,2470.662,13.28,0.035,239.9
2022-01-07T00:22:03,42.805,6.029,-0.035,-0.008,-0.015,104.0,104.0,103.0,13.4,1505.2,330.1,-0.7,1.8,2470.679,13.29,0.035,257.1
2022-01-07T00:25:03,42.805,6.029,-0.018,0.01,-0.025,105.0,104.0,102.0,13.4,1505.2,330.5,-0.7,1.8,2470.657,13.29,0.02,299.1
2022-01-07T00:28:03,42.805,6.029,-0.033,0.001,0.008,104.0,104.0,102.0,13.4,1505.2,331.9,-0.7,1.8,2470.685,13.29,0.033,271.7
2022-01-07T00:31:03,42.805,6.029,-0.034,-0.008,-0.014,105.0,103.0,103.0,13.4,1505.2,326.2,-0.8,1.8,2470.669,13.29,0.034,256.8
2022-01-07T00:34:03,42.805,6.029,-0.025,-0.006,0.004,105.0,104.0,101.0,13.3,1505.2,324.7,-0.7,1.8,2470.64,13.29,0.025,256.5
2022-01-07T00:37:03,42.805,6.029,-0.043,-0.021,-0.024,105.0,104.0,102.0,13.4,1505.2,328.9,-0.8,1.8,2470.652,13.29,0.047,244.0
2022-01-07T00:40:03,42.805,6.029,-0.034,-0.011,-0.014,105.0,104.0,102.0,13.4,1505.2,327.4,-0.8,1.8,2470.707,13.29,0.035,252.1
2022-01-07T00:43:03,42.805,6.029,-0.018,0.007,-0.021,105.0,104.0,102.0,13.4,1505.2,324.7,-0.8,1.8,2470.68,13.29,0.019,291.2
2022-01-07T00:46:03,42.805,6.029,-0.025,-0.012,-0.043,104.0,106.0,103.0,13.4,1505.2,329.7,-0.8,1.8,2470.685,13.29,0.027,244.4
2022-01-07T00:49:03,42.805,6.029,-0.033,0.0,-0.012,105.0,104.0,102.0,13.4,1505.2,329.3,-0.8,1.8,2470.657,13.29,0.033,270.0
2022-01-07T00:52:03,42.805,6.029,-0.019,0.012,-0.015,105.0,105.0,102.0,13.4,1505.2,329.7,-0.7,1.8,2470.663,13.29,0.022,302.3
2022-01-07T00:55:03,42.805,6.029,-0.047,-0.018,-0.016,104.0,103.0,102.0,13.4,1505.2,328.7,-0.7,1.8,2470.642,13.29,0.05,249.0
2022-01-07T00:58:03,42.805,6.029,-0.014,-0.014,-0.011,104.0,105.0,103.0,13.3,1505.2,327.0,-0.7,1.8,2470.665,13.29,0.019,225.0
2022-01-07T01:04:03,42.805,6.029,-0.026,0.014,-0.017,105.0,105.0,103.0,13.4,1505.2,328.1,-0.7,1.9,2470.725,13.28,0.029,298.3
2022-01-07T01:07:03,42.805,6.029,-0.025,0.005,-0.002,104.0,105.0,102.0,13.4,1505.2,330.2,-0.8,1.8,2470.637,13.28,0.025,281.3
2022-01-07T01:10:03,42.805,6.029,-0.022,0.002,-0.021,105.0,102.0,103.0,13.4,1505.2,325.4,-0.7,1.8,2470.636,13.28,0.022,275.2
2022-01-07T01:13:03,42.805,6.029,-0.02,0.0,-0.006,104.0,104.0,102.0,13.4,1505.2,326.5,-0.7,1.8,2470.668,13.28,0.02,270.0
2022-01-07T01:16:03,42.805,6.029,-0.04,-0.005,-0.011,104.0,104.0,102.0,13.4,1505.2,327.8,-0.7,1.8,2470.627,13.29,0.04,262.9
2022-01-07T01:19:03,42.805,6.029,-0.031,0.008,-0.035,104.0,103.0,102.0,13.4,1505.2,328.1,-0.8,1.8,2470.642,13.29,0.032,284.5
2022-01-07T01:22:03,42.805,6.029,-0.037,-0.004,-0.033,104.0,103.0,103.0,13.4,1505.2,325.5,-0.8,1.8,2470.621,13.29,0.037,263.8
2022-01-07T01:25:03,42.805,6.029,-0.029,-0.021,-0.055,102.0,105.0,103.0,13.3,1505.2,326.9,-0.8,1.9,2470.701,13.29,0.035,234.1
2022-01-07T01:28:03,42.805,6.029,-0.018,0.002,-0.03,104.0,104.0,103.0,13.4,1505.2,328.0,-0.8,1.8,2470.639,13.29,0.018,276.3
2022-01-07T01:31:03,42.805,6.029,-0.022,-0.005,-0.032,104.0,104.0,101.0,13.4,1505.2,331.7,-0.7,1.8,2470.653,13.29,0.022,257.2
2022-01-07T01:34:03,42.805,6.029,-0.018,-0.003,-0.029,104.0,104.0,102.0,13.4,1505.2,331.7,-0.8,1.8,2470.637,13.29,0.018,260.5
2022-01-07T01:37:03,42.805,6.029,-0.027,0.007,-0.05,104.0,104.0,101.0,13.3,1505.2,326.2,-0.8,1.8,2470.665,13.29,0.027,284.5
2022-01-07T01:40:03,42.805,6.029,-0.045,-0.011,-0.003,104.0,104.0,102.0,13.3,1505.2,328.1,-0.7,1.8,2470.62,13.29,0.046,256.3
2022-01-07T01:43:03,42.805,6.029,-0.04,-0.008,-0.031,105.0,103.0,102.0,13.3,1505.2,332.3,-0.7,1.8,2470.636,13.29,0.04,258.7
2022-01-07T01:46:03,42.805,6.029,-0.019,-0.012,-0.019,105.0,104.0,103.0,13.4,1505.2,331.4,-0.8,1.9,2470.637,13.29,0.022,237.7
2022-01-07T01:49:03,42.805,6.029,-0.032,0.007,-0.018,104.0,105.0,102.0,13.3,1505.2,331.8,-0.7,1.8,2470.626,13.29,0.032,282.3
2022-01-07T01:52:03,42.805,6.029,-0.016,0.007,0.005,104.0,104.0,103.0,13.3,1505.2,331.1,-0.8,1.8,2470.626,13.29,0.017,293.6
2022-01-07T01:55:03,42.805,6.029,-0.042,0.004,-0.023,105.0,103.0,102.0,13.4,1505.2,331.0,-0.7,1.8,2470.581,13.29,0.042,275.4
2022-01-07T01:58:03,42.805,6.029,-0.041,0.013,-0.035,103.0,104.0,103.0,13.4,1505.2,331.4,-0.8,1.8,2470.584,13.29,0.043,287.6
2022-01-07T02:04:03,42.805,6.029,-0.015,-0.006,-0.024,105.0,104.0,103.0,13.4,1505.2,323.9,-0.8,1.8,2470.67,13.28,0.016,248.2
2022-01-07T02:07:03,42.805,6.029,-0.042,-0.015,-0.024,105.0,104.0,103.0,13.3,1505.2,326.6,-0.8,1.8,2470.619,13.28,0.044,250.4
2022-01-07T02:10:03,42.805,6.029,-0.04,-0.004,-0.035,106.0,104.0,103.0,13.4,1505.2,325.9,-0.8,1.8,2470.614,13.28,0.04,264.3
2022-01-07T02:13:03,42.805,6.029,-0.037,0.027,-0.001,106.0,105.0,102.0,13.3,1505.2,324.7,-0.8,1.8,2470.587,13.29,0.045,306.1
2022-01-07T02:16:03,42.805,6.029,-0.022,0.004,-0.016,105.0,104.0,103.0,13.4,1505.2,330.0,-0.8,1.8,2470.586,13.29,0.022,280.3
2022-01-07T02:19:03,42.805,6.029,-0.02,0.005,-0.003,105.0,106.0,103.0,13.3,1505.2,328.0,-0.7,1.9,2470.609,13.29,0.02,284.0
2022-01-07T02:22:03,42.805,6.029,-0.017,0.011,-0.01,106.0,104.0,102.0,13.4,1505.2,329.2,-0.8,1.8,2470.604,13.29,0.02,302.9
2022-01-07T02:25:03,42.805,6.029,-0.031,-0.001,-0.013,105.0,105.0,103.0,13.3,1505.2,330.5,-0.7,1.8,2470.626,13.29,0.031,268.2
2022-01-07T02:28:03,42.805,6.029,-0.023,0.005,0.0,105.0,105.0,103.0,13.4,1505.2,326.7,-0.8,1.8,2470.608,13.29,0.023,282.3
2022-01-07T02:31:03,42.805,6.029,-0.024,0.015,-0.018,105.0,104.0,102.0,13.3,1505.2,329.8,-0.7,1.8,2470.651,13.29,0.028,302.0
2022-01-07T02:34:03,42.805,6.029,-0.011,-0.022,-0.047,105.0,105.0,103.0,13.4,1505.2,326.0,-0.7,1.8,2470.587,13.29,0.024,206.6
2022-01-07T02:37:03,42.805,6.029,-0.053,0.009,-0.002,106.0,105.0,102.0,13.3,1505.2,326.1,-0.8,1.9,2470.629,13.29,0.053,279.6
2022-01-07T02:40:03,42.805,6.029,-0.021,-0.002,-0.031,105.0,106.0,103.0,13.3,1505.2,329.0,-0.8,1.8,2470.598,13.29,0.021,264.6
2022-01-07T02:43:03,42.805,6.029,-0.036,0.002,0.008,106.0,104.0,102.0,13.3,1505.2,327.2,-0.8,1.8,2470.601,13.29,0.036,273.2
2022-01-07T02:46:03,42.805,6.029,-0.013,0.01,-0.011,106.0,105.0,102.0,13.4,1505.2,331.8,-0.8,1.8,2470.578,13.29,0.016,307.6
2022-01-07T02:49:03,42.805,6.029,-0.015,0.004,0.013,106.0,103.0,101.0,13.4,1505.2,329.5,-0.8,1.8,2470.567,13.29,0.015,284.9
2022-01-07T02:52:03,42.805,6.029,-0.024,0.014,0.016,106.0,105.0,102.0,13.4,1505.2,327.1,-0.7,1.8,2470.611,13.29,0.027,300.3
2022-01-07T02:55:03,42.805,6.029,-0.021,0.008,0.007,105.0,105.0,103.0,13.3,1505.2,324.6,-0.8,1.9,2470.612,13.29,0.022,290.9
2022-01-07T02:58:03,42.805,6.029,-0.011,-0.011,-0.01,106.0,104.0,102.0,13.4,1505.2,329.8,-0.8,1.8,2470.611,13.29,0.015,225.0
2022-01-07T03:04:03,42.805,6.029,-0.035,0.003,-0.002,105.0,105.0,103.0,13.4,1505.2,330.5,-0.8,1.8,2470.696,13.28,0.035,274.9
2022-01-07T03:07:03,42.805,6.029,-0.012,0.002,-0.02,105.0,106.0,102.0,13.3,1505.2,327.4,-0.8,1.8,2470.62,13.28,0.012,279.5
2022-01-07T03:10:03,42.805,6.029,-0.005,-0.001,-0.009,104.0,104.0,102.0,13.4,1505.2,330.2,-0.7,1.8,2470.638,13.29,0.005,258.7
2022-01-07T03:13:03,42.805,6.029,-0.001,0.009,-0.007,106.0,105.0,103.0,13.4,1505.2,323.8,-0.8,1.8,2470.622,13.29,0.009,353.7
2022-01-07T03:16:03,42.805,6.029,-0.028,0.023,0.009,104.0,104.0,103.0,13.4,1505.2,328.2,-0.8,1.8,2470.629,13.29,0.036,309.4
2022-01-07T03:19:03,42.805,6.029,-0.029,0.014,-0.016,106.0,105.0,102.0,13.4,1505.2,330.6,-0.7,1.9,2470.574,13.29,0.032,295.8
2022-01-07T03:22:03,42.805,6.029,-0.037,0.02,-0.009,106.0,106.0,101.0,13.4,1505.2,326.0,-0.8,1.8,2470.605,13.29,0.042,298.4
2022-01-07T03:25:03,42.805,6.029,-0.005,0.011,-0.003,106.0,106.0,103.0,13.3,1505.2,327.0,-0.7,1.8,2470.645,13.29,0.012,335.6
2022-01-07T03:28:03,42.805,6.029,-0.012,0.003,0.003,104.0,106.0,103.0,13.4,1505.2,328.2,-0.7,1.8,2470.597,13.29,0.012,284.0
2022-01-07T03:31:03,42.805,6.029,-0.031,0.008,0.006,106.0,106.0,103.0,13.3,1505.2,327.0,-0.7,1.8,2470.597,13.29,0.032,284.5
2022-01-07T03:34:03,42.805,6.029,-0.034,0.001,-0.016,105.0,105.0,102.0,13.4,1505.2,325.9,-0.8,1.8,2470.619,13.29,0.034,271.7
2022-01-07T03:37:03,42.805,6.029,-0.042,0.018,0.0,104.0,105.0,103.0,13.3,1505.2,325.5,-0.8,1.8,2470.595,13.29,0.045,293.2
2022-01-07T03:40:03,42.805,6.029,-0.036,-0.006,-0.01,106.0,104.0,102.0,13.4,1505.2,328.5,-0.7,1.8,2470.606,13.29,0.036,260.5
2022-01-07T03:43:03,42.805,6.029,-0.03,0.009,-0.022,106.0,105.0,103.0,13.4,1505.2,329.2,-0.8,1.8,2470.557,13.29,0.031,286.7
2022-01-07T03:46:03,42.805,6.029,-0.026,-0.004,-0.012,107.0,105.0,103.0,13.4,1505.2,329.1,-0.7,1.8,2470.598,13.29,0.026,261.3
2022-01-07T03:49:03,42.805,6.029,-0.04,0.016,-0.018,106.0,105.0,103.0,13.4,1505.2,328.9,-0.7,1.8,2470.573,13.29,0.043,291.8
2022-01-07T03:52:03,42.805,6.029,0.001,0.004,-0.009,106.0,105.0,103.0,13.4,1505.2,331.3,-0.7,1.8,2470.574,13.29,0.004,14.0
2022-01-07T03:55:03,42.805,6.029,-0.032,0.02,0.018,107.0,106.0,103.0,13.4,1505.2,325.4,-0.7,1.8,2470.579,13.29,0.037,302.0
2022-01-07T03:58:03,42.805,6.029,-0.04,0.009,-0.036,108.0,106.0,102.0,13.4,1505.2,326.5,-0.7,1.8,2470.583,13.29,0.041,282.7
2022-01-07T04:04:03,42.805,6.029,-0.015,0.01,-0.017,105.0,105.0,103.0,13.3,1505.2,331.1,-0.8,1.8,2470.585,13.28,0.018,303.7
2022-01-07T04:07:03,42.805,6.029,-0.039,0.008,-0.017,106.0,104.0,102.0,13.4,1505.2,328.4,-0.7,1.8,2470.571,13.28,0.039,281.6
2022-01-07T04:10:03,42.805,6.029,-0.013,0.018,0.016,105.0,106.0,103.0,13.4,1505.2,325.6,-0.8,1.8,2470.624,13.29,0.022,324.2
2022-01-07T04:13:03,42.805,6.029,-0.024,0.001,0.0,106.0,105.0,103.0,13.4,1505.2,326.4,-0.8,1.8,2470.589,13.29,0.024,272.4
2022-01-07T04:16:03,42.805,6.029,-0.028,0.011,0.013,106.0,104.0,103.0,13.4,1505.2,330.1,-0.8,1.8,2470.547,13.29,0.03,291.4
2022-01-07T04:19:03,42.805,6.029,-0.011,0.009,0.008,106.0,105.0,102.0,13.3,1505.2,329.7,-0.8,1.8,2470.599,13.29,0.014,309.3
2022-01-07T04:22:03,42.805,6.029,-0.004,0.012,-0.032,105.0,104.0,103.0,13.3,1505.2,327.9,-0.7,1.8,2470.594,13.29,0.012,341.6
2022-01-07T04:25:03,42.805,6.029,0.012,0.01,0.018,106.0,103.0,102.0,13.4,1505.2,328.4,-0.8,1.8,2470.586,13.29,0.015,50.2
2022-01-07T04:28:03,42.805,6.029,-0.011,0.001,-0.022,106.0,104.0,102.0,13.4,1505.2,331.5,-0.8,1.8,2470.569,13.29,0.011,275.2
2022-01-07T04:31:03,42.805,6.029,0.004,0.011,0.016,106.0,103.0,102.0,13.4,1505.2,325.4,-0.8,1.8,2470.548,13.29,0.011,20.0
2022-01-07T04:34:03,42.805,6.029,-0.022,-0.011,-0.009,105.0,104.0,102.0,13.4,1505.2,327.1,-0.8,1.8,2470.55,13.29,0.024,243.4
2022-01-07T04:37:03,42.805,6.029,-0.023,-0.008,-0.011,105.0,103.0,103.0,13.4,1505.2,328.9,-0.8,1.8,2470.577,13.29,0.024,250.8
2022-01-07T04:40:03,42.805,6.029,-0.02,0.016,-0.008,104.0,103.0,102.0,13.4,1505.2,328.3,-0.7,1.8,2470.568,13.29,0.025,308.7
2022-01-07T04:43:03,42.805,6.029,-0.009,0.01,-0.01,105.0,103.0,102.0,13.3,1505.2,329.5,-0.8,1.8,2470.559,13.29,0.013,318.0
2022-01-07T04:46:03,42.805,6.029,-0.001,0.008,-0.012,103.0,103.0,102.0,13.3,1505.2,329.9,-0.7,1.8,2470.599,13.29,0.008,352.9
2022-01-07T04:49:03,42.805,6.029,-0.016,0.002,-0.03,104.0,103.0,102.0,13.4,1505.2,327.9,-0.7,1.8,2470.531,13.29,0.016,277.1
2022-01-07T04:52:03,42.805,6.029,-0.01,-0.001,-0.012,102.0,103.0,102.0,13.4,1505.2,331.3,-0.8,1.8,2470.549,13.29,0.01,264.3
2022-01-07T04:55:03,42.805,6.029,-0.017,0.012,-0.003,106.0,102.0,102.0,13.4,1505.2,324.5,-0.7,1.8,2470.545,13.29,0.02,305.2
2022-01-07T04:58:03,42.805,6.029,0.008,0.011,0.014,103.0,103.0,101.0,13.3,1505.2,325.6,-0.7,1.8,2470.572,13.29,0.013,36.0
2022-01-07T05:04:03,42.805,6.029,-0.01,-0.002,-0.022,104.0,104.0,102.0,13.4,1505.2,331.6,-0.8,1.8,2470.659,13.29,0.01,258.7
2022-01-07T05:07:03,42.805,6.029,-0.003,0.02,0.016,103.0,103.0,100.0,13.4,1505.2,324.7,-0.8,1.8,2470.646,13.29,0.02,351.5
2022-01-07T05:10:03,42.805,6.029,-0.021,0.015,-0.026,102.0,104.0,102.0,13.3,1505.2,327.9,-0.8,1.8,2470.596,13.29,0.025,305.5
2022-01-07T05:13:03,42.805,6.029,-0.005,0.007,0.0,102.0,102.0,100.0,13.4,1505.2,329.2,-0.8,1.8,2470.567,13.29,0.008,324.5
2022-01-07T05:16:03,42.805,6.029,-0.01,0.02,-0.023,104.0,102.0,101.0,13.4,1505.2,329.5,-0.7,1.8,2470.593,13.29,0.022,333.4
2022-01-07T05:19:03,42.805,6.029,-0.001,0.022,0.001,102.0,102.0,101.0,13.4,1505.2,327.7,-0.8,1.8,2470.59,13.29,0.022,357.4
2022-01-07T05:22:03,42.805,6.029,-0.027,-0.006,-0.038,103.0,103.0,101.0,13.3,1505.2,326.2,-0.7,1.8,2470.559,13.29,0.027,257.5
2022-01-07T05:25:03,42.805,6.029,-0.025,0.012,0.015,104.0,102.0,101.0,13.4,1505.2,330.4,-0.8,1.8,2470.552,13.29,0.027,295.6
2022-01-07T05:28:03,42.805,6.029,-0.003,0.003,-0.008,103.0,102.0,101.0,13.4,1505.2,331.8,-0.8,1.8,2470.548,13.29,0.004,315.0
2022-01-07T05:31:03,42.805,6.029,0.004,0.022,0.013,104.0,101.0,101.0,13.4,1505.2,330.4,-0.7,1.8,2470.564,13.29,0.022,10.3
2022-01-07T05:34:03,42.805,6.029,-0.019,0.0,-0.014,103.0,102.0,102.0,13.4,1505.2,324.2,-0.8,1.8,2470.581,13.29,0.019,270.0
2022-01-07T05:37:03,42.805,6.029,-0.004,0.019,0.03,102.0,103.0,101.0,13.4,1505.2,328.4,-0.8,1.8,2470.627,13.29,0.019,348.1
2022-01-07T05:40:03,42.805,6.029,-0.027,0.018,-0.019,105.0,102.0,101.0,13.4,1505.2,328.5,-0.7,1.8,2470.605,13.29,0.032,303.7
2022-01-07T05:43:03,42.805,6.029,-0.02,0.01,-0.025,103.0,102.0,100.0,13.4,1505.2,328.0,-0.7,1.8,2470.558,13.29,0.022,296.6
2022-01-07T05:46:03,42.805,6.029,-0.035,0.02,-0.025,102.0,102.0,102.0,13.4,1505.2,329.6,-0.7,1.8,2470.567,13.29,0.04,299.7
2022-01-07T05:49:03,42.805,6.029,-0.022,0.01,0.022,101.0,102.0,104.0,13.3,1505.2,327.9,-0.8,1.8,2470.565,13.29,0.024,294.4
2022-01-07T05:52:03,42.805,6.029,-0.011,0.017,0.026,101.0,102.0,102.0,13.4,1505.2,325.4,-0.7,1.9,2470.6,13.29,0.02,327.1
2022-01-07T05:55:03,42.805,6.029,-0.015,0.011,-0.006,103.0,102.0,100.0,13.4,1505.2,326.2,-0.7,1.8,2470.612,13.29,0.018,306.3
2022-01-07T05:58:03,42.805,6.029,-0.028,0.011,-0.018,104.0,103.0,100.0,13.4,1505.2,326.6,-0.7,1.8,2470.585,13.29,0.03,291.4
2022-01-07T06:04:03,42.805,6.029,-0.027,0.016,0.02,102.0,102.0,101.0,13.3,1505.2,329.0,-0.7,1.8,2470.654,13.28,0.031,300.7
2022-01-07T06:07:03,42.805,6.029,-0.032,0.032,0.032,102.0,102.0,102.0,13.3,1505.2,323.5,-0.8,1.8,2470.619,13.28,0.045,315.0
2022-01-07T06:10:03,42.805,6.029,0.005,0.005,0.0,104.0,102.0,101.0,13.4,1505.2,328.3,-0.8,1.8,2470.601,13.29,0.007,45.0
2022-01-07T06:13:03,42.805,6.029,-0.004,0.024,-0.031,102.0,102.0,101.0,13.4,1505.2,324.6,-0.8,1.8,2470.601,13.29,0.024,350.5
2022-01-07T06:16:03,42.805,6.029,-0.003,0.017,0.0,103.0,100.0,101.0,13.4,1505.2,331.2,-0.7,1.8,2470.608,13.29,0.017,350.0
2022-01-07T06:19:03,42.805,6.029,-0.034,0.006,-0.018,103.0,101.0,101.0,13.4,1505.2,324.0,-0.7,1.8,2470.602,13.29,0.034,280.0
2022-01-07T06:22:03,42.805,6.029,0.0,-0.002,0.002,102.0,102.0,101.0,13.4,1505.2,325.1,-0.8,1.9,2470.636,13.29,0.002,180.0
2022-01-07T06:25:03,42.805,6.029,-0.021,0.012,-0.034,103.0,104.0,101.0,13.4,1505.2,326.7,-0.8,1.8,2470.591,13.29,0.024,299.7
2022-01-07T06:28:03,42.805,6.029,-0.001,0.004,-0.001,102.0,104.0,101.0,13.4,1505.2,329.9,-0.8,1.8,2470.623,13.29,0.004,346.0
2022-01-07T06:31:03,42.805,6.029,-0.001,0.001,0.001,103.0,103.0,101.0,13.4,1505.2,330.9,-0.8,1.8,2470.623,13.29,0.001,315.0
2022-01-07T06:34:03,42.805,6.029,-0.034,0.019,-0.021,102.0,102.0,101.0,13.3,1505.2,331.2,-0.8,1.9,2470.642,13.29,0.038,299.2
2022-01-07T06:37:03,42.805,6.029,-0.028,0.025,-0.042,103.0,101.0,101.0,13.4,1505.2,330.9,-0.7,1.8,2470.629,13.29,0.037,311.8
2022-01-07T06:40:03,42.805,6.029,-0.03,0.001,-0.012,102.0,101.0,101.0,13.4,1505.2,330.5,-0.8,1.8,2470.654,13.29,0.03,271.9
2022-01-07T06:43:03,42.805,6.029,-0.013,0.002,-0.006,101.0,101.0,101.0,13.4,1505.2,324.6,-0.8,1.8,2470.648,13.29,0.013,278.7
2022-01-07T06:46:03,42.805,6.029,-0.01,0.008,-0.028,102.0,102.0,101.0,13.3,1505.2,324.0,-0.7,1.8,2470.637,13.29,0.012,308.7
2022-01-07T06:49:03,42.805,6.029,-0.036,0.029,-0.002,101.0,102.0,101.0,13.3,1505.2,325.6,-0.8,1.8,2470.671,13.29,0.046,308.9
2022-01-07T06:52:03,42.805,6.029,-0.015,0.003,-0.014,102.0,104.0,101.0,13.3,1505.2,326.6,-0.7,1.8,2470.652,13.29,0.015,281.3
2022-01-07T06:55:03,42.805,6.029,-0.024,0.017,-0.023,104.0,102.0,101.0,13.4,1505.2,328.4,-0.8,1.8,2470.68,13.29,0.029,305.3
2022-01-07T06:58:03,42.805,6.029,-0.017,0.008,-0.02,103.0,103.0,101.0,13.4,1505.2,324.5,-0.7,1.8,2470.663,13.29,0.018,295.2
2022-01-07T07:04:03,42.805,6.029,-0.026,0.014,-0.009,103.0,101.0,101.0,13.4,1505.2,324.4,-0.8,1.8,2470.718,13.29,0.029,298.3
2022-01-07T07:07:03,42.805,6.029,0.019,-0.008,-0.016,104.0,102.0,101.0,13.4,1505.2,330.8,-0.7,1.8,2470.682,13.29,0.02,112.8
2022-01-07T07:10:03,42.805,6.029,-0.016,0.004,0.014,102.0,102.0,101.0,13.4,1505.2,327.0,-0.7,1.8,2470.666,13.29,0.016,284.0
2022-01-07T07:13:03,42.805,6.029,-0.021,-0.004,-0.004,102.0,103.0,101.0,13.4,1505.2,325.4,-0.7,1.8,2470.699,13.29,0.021,259.2
2022-01-07T07:16:03,42.805,6.029,-0.01,0.009,-0.003,103.0,101.0,101.0,13.4,1505.2,323.7,-0.7,1.8,2470.657,13.29,0.013,312.0
2022-01-07T07:19:03,42.805,6.029,-0.03,0.029,-0.012,101.0,102.0,102.0,13.4,1505.2,331.0,-0.7,1.8,2470.709,13.29,0.041,314.0
2022-01-07T07:22:03,42.805,6.029,-0.015,0.018,-0.008,103.0,101.0,101.0,13.4,1505.2,329.8,-0.8,1.8,2470.688,13.29,0.023,320.2
2022-01-07T07:25:03,42.805,6.029,-0.028,0.0,0.002,103.0,103.0,101.0,13.4,1505.2,330.0,-0.7,1.8,2470.691,13.29,0.028,270.0
2022-01-07T07:28:03,42.805,6.029,-0.034,0.007,0.001,103.0,102.0,100.0,13.4,1505.2,328.0,-0.7,1.8,2470.703,13.29,0.034,281.6
2022-01-07T07:31:03,42.805,6.029,0.006,0.001,0.002,102.0,102.0,102.0,13.3,1505.2,330.6,-0.8,1.8,2470.684,13.29,0.006,80.5
2022-01-07T07:34:03,42.805,6.029,-0.023,0.01,0.012,101.0,102.0,103.0,13.4,1505.2,326.7,-0.7,1.8,2470.671,13.29,0.025,293.5
2022-01-07T07:37:03,42.805,6.029,-0.033,0.012,0.001,103.0,101.0,101.0,13.3,1505.2,330.1,-0.8,1.8,2470.687,13.29,0.035,290.0
2022-01-07T07:40:03,42.805,6.029,-0.009,-0.007,-0.017,103.0,103.0,101.0,13.4,1505.2,326.1,-0.7,1.8,2470.711,13.29,0.011,232.1
2022-01-07T07:43:03,42.805,6.029,-0.02,0.01,0.009,101.0,102.0,102.0,13.4,1505.2,331.0,-0.8,1.8,2470.693,13.29,0.022,296.6
2022-01-07T07:46:03,42.805,6.029,-0.008,-0.002,-0.021,104.0,102.0,101.0,13.3,1505.2,324.2,-0.7,1.8,2470.705,13.29,0.008,256.0
2022-01-07T07:49:03,42.805,6.029,-0.036,0.025,-0.02,103.0,103.0,101.0,13.4,1505.2,329.8,-0.8,1.8,2470.691,13.29,0.043,304.8
2022-01-07T07:52:03,42.805,6.029,-0.024,-0.008,-0.03,103.0,104.0,100.0,13.4,1505.2,329.2,-0.7,1.8,2470.681,13.29,0.025,251.6
2022-01-07T07:55:03,42.805,6.029,0.0,-0.008,-0.016,101.0,103.0,101.0,13.3,1505.2,326.0,-0.8,1.8,2470.689,13.29,0.008,180.0
2022-01-07T07:58:03,42.805,6.029,-0.03,0.001,-0.002,103.0,102.0,101.0,13.4,1505.2,326.3,-0.8,1.8,2470.735,13.29,0.03,271.9
2022-01-07T08:04:03,42.805,6.029,-0.004,0.005,0.017,104.0,102.0,100.0,13.4,1505.2,331.1,-0.8,1.8,2470.768,13.29,0.006,321.3
2022-01-07T08:07:03,42.805,6.029,-0.035,0.006,-0.025,105.0,102.0,102.0,13.3,1505.2,326.4,-0.7,1.8,2470.74,13.29,0.035,279.7
2022-01-07T08:10:03,42.805,6.029,-0.016,-0.002,-0.015,102.0,103.0,102.0,13.4,1505.2,325.6,-0.8,1.8,2470.743,13.29,0.016,262.9
2022-01-07T08:13:03,42.805,6.029,-0.043,0.04,-0.003,103.0,103.0,102.0,13.4,1505.2,328.5,-0.8,1.9,2470.77,13.29,0.058,312.9
2022-01-07T08:16:03,42.805,6.029,-0.021,0.02,0.017,105.0,103.0,102.0,13.3,1505.2,326.2,-0.7,1.8,2470.765,13.29,0.028,313.6
2022-01-07T08:19:03,42.805,6.029,-0.049,0.034,0.011,102.0,103.0,102.0,13.4,1505.2,324.8,-0.7,1.8,2470.76,13.29,0.059,304.8
2022-01-07T08:22:03,42.805,6.029,-0.001,-0.001,-0.008,103.0,103.0,101.0,13.4,1505.2,327.9,-0.8,1.9,2470.732,13.29,0.001,225.0
2022-01-07T08:25:03,42.805,6.029,-0.032,0.015,0.0,102.0,104.0,102.0,13.3,1505.2,327.4,-0.8,1.8,2470.758,13.29,0.035,295.1
2022-01-07T08:28:03,42.805,6.029,-0.022,0.011,0.011,102.0,102.0,100.0,13.3,1505.2,324.8,-0.7,1.8,2470.735,13.29,0.024,296.6
2022-01-07T08:31:03,42.805,6.029,-0.004,-0.007,-0.023,102.0,103.0,100.0,13.3,1505.2,326.0,-0.8,1.8,2470.752,13.29,0.008,209.7
2022-01-07T08:34:03,42.805,6.029,-0.007,0.001,0.01,103.0,102.0,102.0,13.4,1505.2,329.1,-0.7,1.8,2470.766,13.29,0.007,278.1
2022-01-07T08:37:03,42.805,6.029,-0.009,0.001,-0.049,102.0,103.0,101.0,13.4,1505.2,326.0,-0.7,1.9,2470.774,13.29,0.009,276.3
2022-01-07T08:40:03,42.805,6.029,-0.012,0.022,-0.01,102.0,101.0,101.0,13.4,1505.2,325.7,-0.7,1.8,2470.76,13.29,0.025,331.4
2022-01-07T08:43:03,42.805,6.029,-0.041,0.025,-0.026,102.0,101.0,100.0,13.3,1505.2,324.6,-0.8,1.9,2470.743,13.29,0.048,301.4
2022-01-07T08:46:03,42.805,6.029,-0.026,0.017,-0.003,101.0,103.0,100.0,13.4,1505.2,330.3,-0.8,1.8,2470.767,13.29,0.031,303.2
2022-01-07T08:49:03,42.805,6.029,0.007,0.006,-0.005,103.0,102.0,101.0,13.4,1505.2,326.3,-0.8,1.8,2470.767,13.29,0.009,49.4
2022-01-07T08:52:03,42.805,6.029,-0.009,0.007,-0.012,101.0,102.0,101.0,13.4,1505.2,327.2,-0.8,1.8,2470.729,13.29,0.011,307.9
2022-01-07T08:55:03,42.805,6.029,-0.007,0.007,-0.005,102.0,101.0,101.0,13.3,1505.2,328.6,-0.8,1.8,2470.745,13.29,0.009,315.0
2022-01-07T08:58:03,42.805,6.029,-0.001,0.002,-0.017,101.0,100.0,102.0,13.3,1505.2,328.3,-0.8,1.8,2470.761,13.29,0.002,333.4
2022-01-07T09:04:03,42.805,6.029,-0.019,-0.011,-0.02,102.0,102.0,101.0,13.3,1505.2,326.1,-0.8,1.8,2470.828,13.28,0.021,239.9
2022-01-07T09:07:03,42.805,6.029,-0.016,0.013,0.011,102.0,101.0,101.0,13.4,1505.2,324.3,-0.8,1.8,2470.789,13.29,0.02,309.1
2022-01-07T09:10:03,42.805,6.029,-0.029,0.018,-0.005,102.0,101.0,101.0,13.4,1505.2,327.0,-0.7,1.8,2470.776,13.29,0.034,301.8
2022-01-07T09:13:03,42.805,6.029,-0.038,0.004,-0.026,102.0,102.0,100.0,13.3,1505.2,328.3,-0.7,1.9,2470.794,13.29,0.038,276.0
2022-01-07T09:16:03,42.805,6.029,-0.012,0.001,-0.002,102.0,101.0,101.0,13.4,1505.2,328.2,-0.8,1.8,2470.773,13.29,0.012,274.8
2022-01-07T09:19:03,42.805,6.029,0.0,0.0,-0.012,101.0,101.0,101.0,13.4,1505.2,328.7,-0.8,1.8,2470.806,13.29,0.0,0.0
2022-01-07T09:22:03,42.805,6.029,-0.025,0.016,-0.021,101.0,100.0,102.0,13.3,1505.2,325.7,-0.8,1.8,2470.767,13.29,0.029,302.6
2022-01-07T09:25:03,42.805,6.029,-0.027,0.02,0.008,102.0,102.0,101.0,13.4,1505.2,326.5,-0.8,1.8,2470.783,13.29,0.033,306.5
2022-01-07T09:28:03,42.805,6.029,-0.007,0.025,0.007,101.0,101.0,101.0,13.4,1505.2,326.7,-0.7,1.9,2470.806,13.29,0.025,344.4
2022-01-07T09:31:03,42.805,6.029,-0.028,0.003,0.01,102.0,102.0,100.0,13.4,1505.2,326.5,-0.7,1.9,2470.795,13.29,0.028,276.1
2022-01-07T09:34:03,42.805,6.029,-0.016,0.002,-0.019,101.0,102.0,101.0,13.4,1505.2,324.2,-0.7,1.8,2470.856,13.29,0.016,277.1
2022-01-07T09:37:03,42.805,6.029,-0.004,0.004,-0.009,103.0,102.0,101.0,13.4,1505.2,326.6,-0.7,1.8,2470.839,13.29,0.005,315.0
2022-01-07T09:40:03,42.805,6.029,-0.012,-0.012,-0.035,103.0,101.0,100.0,13.3,1505.2,325.7,-0.8,1.8,2470.786,13.29,0.016,225.0
2022-01-07T09:43:03,42.805,6.029,-0.025,0.005,-0.018,101.0,101.0,101.0,13.4,1505.2,331.6,-0.7,1.8,2470.787,13.29,0.025,281.3
2022-01-07T09:46:03,42.805,6.029,0.007,0.0,-0.015,100.0,103.0,101.0,13.4,1505.2,327.7,-0.8,1.8,2470.792,13.29,0.007,90.0
2022-01-07T09:49:03,42.805,6.029,-0.025,0.009,-0.02,101.0,101.0,100.0,13.4,1505.2,325.8,-0.7,1.8,2470.816,13.29,0.026,289.8
2022-01-07T09:52:03,42.805,6.029,0.002,-0.007,-0.029,101.0,101.0,101.0,13.4,1505.2,329.9,-0.7,1.8,2470.814,13.29,0.007,164.1
2022-01-07T09:55:03,42.805,6.029,-0.022,-0.012,-0.013,101.0,102.0,100.0,13.4,1505.2,329.9,-0.7,1.8,2470.836,13.29,0.025,241.4